Weather Roundup
Issued by NWS Chicago, IL

Home | Current Version | Previous Version | Graphics & Text | Print | Product List | Glossary On
Versions: 1 2 3 4 5 6 7 8 9 10 11 12 13 14 15 16 17 18 19 20 21 22 23 24 25 26 27 28 29 30 31 32 33 34 35 36 37 38 39 40 41 42 43 44 45 46 47 48 49 50
000
NZUS59 KLOT 202303
HRRLOT

CHICAGO AREA WEATHER ROUNDUP
NATIONAL WEATHER SERVICE CHICAGO/ROMEOVILLE IL
500 PM CST MON FEB 20 2017

NOTE: "FAIR" INDICATES FEW OR NO CLOUDS BELOW 12,000 FEET WITH NO
SIGNIFICANT WEATHER AND/OR OBSTRUCTIONS TO VISIBILITY.

* THESE STATIONS ARE NOT UNDER NWS QUALITY CONTROL. THEY ALSO MAY NOT
  REPORT WEATHER SUCH AS PRECIPITATION OR FOG.

ILZ005-006-012>014-019>023-210000-
NORTHEAST ILLINOIS

CITY           SKY/WX    TMP DP  RH WIND       PRES   REMARKS
OHARE          CLOUDY    66  47  50 SE15      29.97R
MIDWAY         CLOUDY    66  45  46 SE14      29.98S
AURORA         CLOUDY    66  51  58 SE17      29.95S
LANSING*       CLOUDY    63  48  59 SE10      30.01R
JOLIET*        CLOUDY    67  51  57 SE10      29.97S
WAUKEGAN       PTCLDY    53  41  63 S12       29.97S
DUPAGE AIRPORT MOCLDY    65  47  52 SE13      29.95F
WHEELING       CLOUDY    65  45  48 S20G26    29.98S
KANKAKEE*      PTCLDY    64  48  56 SE10      30.00F
MORRIS*        CLOUDY    65  51  59 SE12      29.95S
LEWIS AIRPORT* PTCLDY    64  52  65 S15G21    29.97S
NORTHERLY ISL    N/A     46  38  73 S2          N/A
$$

WIZ051-052-058>065-066-070>072-210000-
SOUTHEAST WISCONSIN

CITY           SKY/WX    TMP DP  RH WIND       PRES   REMARKS
MILWAUKEE      CLOUDY    57  43  59 S18       29.97S
KENOSHA*       CLOUDY    57  43  59 SE20G25   29.96F
RACINE*        CLOUDY    54  40  59 S17G25    29.98S
WAUKESHA       MOCLDY    55  43  62 SE12G23   29.95F
$$

INZ001>003-010>013-019-020-210000-
NORTHWEST INDIANA

CITY           SKY/WX    TMP DP  RH WIND       PRES   REMARKS
GARY*          MOCLDY    66  41  39 MISG      30.01S
MICHIGAN CITY* NOT AVBL
RENSSELAER*    NOT AVBL
VALPARAISO     CLOUDY    63  44  50 SE9       30.04S
$$

LMZ740>746-210000-
SOUTHERN LAKE MICHIGAN

STATION/POSITION TIME  SKY/WX   TEMP WIND        PRES    VSBY
                                AIR  DIR/SP/G
                 (UTC)          (F)  (DEG/KT/KT) (MB)    (MI)
HARRISON CRIB    2240            52  150/ 20/ 22   N/A
BURNHAM HARBOR   2300            46  170/  4/  9   N/A
CALUMET HARBOR   2230            65  150/ 11/ 18 1015.3R
BURNS HARBOR     2240            64  140/  9/ 15 1016.9S
MICHIGAN CITY    2240            64  140/ 11/ 14   N/A
$$

ABBREVIATIONS USED IN REMARKS
   TC - TEMPERATURE IN CELSIUS
  WCI - WIND CHILL INDEX
   HX - HEAT INDEX
  VSB - VISIBILITY
$$




USA.gov is the U.S. government's official web portal to all federal, state and local government web resources and services.